loading
DOY 203 | 2024-07-21T11:21:55Z

THOR ABLESTAR DEB, 537

Orbit data source: Space-Track

THOR ABLESTAR DEB, 537 is space debris in LEO originally from a launch on Thu, 29 Jun 1961 UTC launched from the Air Force Eastern Test Range (AFETR). Debris objects in space refer to the collection of defunct objects orbiting the Earth. Examples of debris include non-operational satellites, rocket bodies, and fragments generated from explosions, collisions, or faulty payload assembly.

Loading next visibility...
Loading greatness...
THOR ABLESTAR DEB details
NORAD ID537
COSPAR ID
1961-015FW
Orbit
LEO
Last TLE update22 hours ago
Origin
Flag of USUSAF SSD (US)
ManufacturerUnknown
BusUnknown
MotorUnknown
MassWet unknown, Dry mass unknown
Launch date (UTC)
1961-06-29 (63 years ago)
Launch vehicleUnknown
Launch site
Air Force Eastern Test Range (AFETR)
Object type
Payload
Rocket body
Debris
Radar Cross SectionSmall (<0.1 m²)
Predictive object data (real-time)
Latitude-54.73575°
Longitude100.74239°
Altitude1,150.762 km
Speed7.223 km/s
Apparent Right ascension14h 02m 53s
Apparent Declination-51° 07' 08"
Sunlit
Object is in full shadow
Predictive observer data (real-time)
Local Sidereal Time00:20:19
Azimuth229.262° WSW
Elevation-68.993°
Doppler factor1
Orbital elements
Apogee1,141.687 km
Perigee896.895 km
Semi-major axis7,397.428 km
Eccentricity0.0165457
Inclination67.2264°
RAAN278.1587°
Arg. of periapsis92.3743°
True anomaly23.79682°
Mean anomaly23.0404°
Mean motion3.41132 °/min
BSTAR0.00076386
Period105.53 mins
Definitive object data (Epoch: 2024-07-20T13:21:09.567Z)
Latitude55.96124°
Longitude-79.13463°
Altitude917.083 km
Speed7.455 km/s
True Right ascension03h 59m 53s
True Declination55° 48' 18"
Sunlit
Object was in daylight at TLE epoch
TLE from 22 hours ago
0 THOR ABLESTAR DEB
1 00537U 61015FW  24202.55636073  .00000600  00000-0  76386-3 0  9992
2 00537  67.2264 278.1587 0165457  92.3743  23.0404 13.64073450920207
Epoch: 2024-07-20T13:21Z
No data available

THOR ABLESTAR DEB Visibility forecast

Observer location: 39.9160978°, -105.1181434

THOR ABLESTAR DEB is not visible in the next 10 days
Span
Click to sort rows by Start time (UTC) header in descending order
Start Az.
Max El. time (UTC)
Max El. Az.
Max El.
End time (UTC)
End Az.